TimeMST,TemperatureF,Dew PointF,Humidity,Sea Level PressureIn,VisibilityMPH,Wind Direction,Wind SpeedMPH,Gust SpeedMPH,PrecipitationIn,Events,Conditions,WindDirDegrees,DateUTC
12:53 AM,26.1,19.0,75,30.08,10.0,SSE,9.2,-,N/A,,Overcast,150,2013-01-09 07:53:00
1:53 AM,25.0,19.0,78,30.07,10.0,SSE,9.2,-,N/A,,Mostly Cloudy,160,2013-01-09 08:53:00
2:53 AM,24.1,18.0,77,30.06,10.0,SSE,8.1,-,N/A,,Clear,160,2013-01-09 09:53:00
3:53 AM,24.1,17.1,75,30.04,10.0,SSE,9.2,-,N/A,,Clear,150,2013-01-09 10:53:00
4:53 AM,24.1,17.1,75,30.03,10.0,SSE,11.5,-,N/A,,Clear,150,2013-01-09 11:53:00
6:53 AM,24.1,17.1,75,30.02,10.0,SSE,11.5,-,N/A,,Clear,150,2013-01-09 13:53:00
7:53 AM,25.0,18.0,75,30.04,10.0,SE,8.1,-,N/A,,Clear,140,2013-01-09 14:53:00
8:53 AM,27.0,19.0,72,30.05,10.0,SSE,10.4,-,N/A,,Clear,160,2013-01-09 15:53:00
9:53 AM,28.9,21.0,72,30.05,10.0,SSE,3.5,-,N/A,,Clear,160,2013-01-09 16:53:00
10:53 AM,32.0,21.9,66,30.03,10.0,SSE,10.4,-,N/A,,Clear,150,2013-01-09 17:53:00
11:53 AM,36.0,25.0,64,30.00,10.0,SSE,8.1,-,N/A,,Clear,150,2013-01-09 18:53:00
12:53 PM,39.0,27.0,62,29.96,10.0,SSE,11.5,-,N/A,,Clear,160,2013-01-09 19:53:00
1:53 PM,41.0,28.0,60,29.94,10.0,SSE,5.8,-,N/A,,Clear,160,2013-01-09 20:53:00
2:53 PM,41.0,28.9,62,29.92,10.0,SSE,8.1,-,N/A,,Clear,150,2013-01-09 21:53:00
3:53 PM,42.1,30.0,62,29.89,10.0,SE,9.2,-,N/A,,Clear,130,2013-01-09 22:53:00
4:53 PM,42.1,30.0,62,29.87,10.0,SE,9.2,-,N/A,,Clear,130,2013-01-09 23:53:00
5:53 PM,41.0,30.0,65,29.83,10.0,SE,11.5,-,N/A,,Clear,140,2013-01-10 00:53:00
6:53 PM,39.9,30.0,68,29.81,10.0,SSE,9.2,-,N/A,,Clear,150,2013-01-10 01:53:00
7:53 PM,39.9,30.0,68,29.79,10.0,South,11.5,-,N/A,,Clear,170,2013-01-10 02:53:00
8:53 PM,39.0,30.0,70,29.76,10.0,South,10.4,-,N/A,,Clear,170,2013-01-10 03:53:00
9:53 PM,37.0,30.0,76,29.75,10.0,South,8.1,-,N/A,,Clear,170,2013-01-10 04:53:00
10:53 PM,35.1,28.9,78,29.75,10.0,SSE,10.4,-,N/A,,Clear,160,2013-01-10 05:53:00
11:53 PM,35.1,28.9,78,29.73,10.0,South,10.4,-,N/A,,Clear,180,2013-01-10 06:53:00